Makassar, Indonesia

6:19 AM WITA on October 20, 2017 (GMT +0800)
Hasanuddin

Weather History for WAAA - March, 2014

Change the Weather History Date:

Wednesday, March 19, 2014

  Actual Average Record
Temperature  
Mean Temperature 80 °F -  
Max Temperature 87 °F - - ()
Min Temperature 74 °F - - ()
Cooling Degree Days 16    
Growing Degree Days 30 (Base 50)    
Moisture  
Dew Point 75 °F    
Average Humidity 88    
Maximum Humidity 100    
Minimum Humidity 63    
Precipitation  
Precipitation 0.08 in - - ()
Sea Level Pressure  
Sea Level Pressure 29.82 in    
Wind  
Wind Speed 4 mph ()    
Max Wind Speed 13 mph    
Max Gust Speed 26 mph    
Visibility 5.1 miles    
Events Rain    
T = Trace of Precipitation, MM = Missing Value Source: Averaged Metar Reports

Daily Weather History Graph

Daily Weather History Graph

Search for Another Location

Airport or City:

Trip Planner

Search our weather history database for the weather conditions in past years. The results will help you decide how hot, cold, wet, or windy it might be!

Date:

Astronomy

Mar. 19, 2014 Rise Set
Actual Time 6:06 AM WITA 6:13 PM WITA
Civil Twilight 5:45 AM WITA 6:33 PM WITA
Nautical Twilight 5:21 AM WITA 6:57 PM WITA
Astronomical Twilight 4:57 AM WITA 7:22 PM WITA
Moon 8:08 PM WITA 7:50 AM WITA
Length of Visible Light 12h 48m
Length of Day
12h 06m
Waning Gibbous, 94% of the Moon is Illuminated
Mar 19
Waning Gibbous
Mar 24
Last Quarter
Mar 31
New
Apr 7
First Quarter
Apr 15
Full

Hourly Weather History & Observations

Time (WITA) Temp. Heat Index Dew Point Humidity Pressure Visibility Wind Dir Wind Speed Gust Speed Precip Events Conditions
12:00 AM 77.0 °F - 75.2 °F 94% 29.86 in 5.0 mi Variable 2.3 mph - N/A   Partly Cloudy
12:30 AM 75.2 °F - 75.2 °F 100% 29.83 in 5.0 mi NE 3.5 mph - N/A   Partly Cloudy
1:00 AM 75.2 °F - 75.2 °F 100% 29.83 in 5.0 mi ENE 2.3 mph - N/A   Partly Cloudy
1:30 AM 75.2 °F - 75.2 °F 100% 29.83 in 5.0 mi NNE 3.5 mph - N/A   Mostly Cloudy
2:00 AM 75 °F - 74 °F 97% 29.83 in 5 mi ENE 2.3 mph - -   Scattered Clouds
2:00 AM 75.2 °F - 75.2 °F 100% 29.83 in 5.0 mi Variable 1.2 mph - N/A   Partly Cloudy
2:30 AM 75.2 °F - 75.2 °F 100% 29.83 in - ESE 2.3 mph - N/A   Unknown
3:00 AM 75.2 °F - 75.2 °F 100% 29.83 in 5.0 mi Variable 2.3 mph - N/A   Partly Cloudy
3:30 AM 75.2 °F - 75.2 °F 100% 29.80 in 5.0 mi NNE 3.5 mph - N/A   Partly Cloudy
4:00 AM 75.2 °F - 75.2 °F 100% 29.80 in 5.0 mi Variable 2.3 mph - N/A   Partly Cloudy
4:30 AM 75.2 °F - 75.2 °F 100% 29.83 in 5.0 mi NE 2.3 mph - N/A   Partly Cloudy
5:00 AM 75 °F - 74 °F 98% 29.84 in 5 mi NE 2.3 mph - -   Scattered Clouds
5:00 AM 75.2 °F - 75.2 °F 100% 29.83 in 5.0 mi Variable 2.3 mph - N/A   Partly Cloudy
5:30 AM 75.2 °F - 75.2 °F 100% 29.83 in 5.0 mi NE 2.3 mph - N/A   Partly Cloudy
6:00 AM 75.2 °F - 73.4 °F 94% 29.83 in 5.0 mi NE 2.3 mph - N/A   Partly Cloudy
6:30 AM 75.2 °F - 75.2 °F 100% 29.83 in 5.0 mi North 2.3 mph - N/A   Partly Cloudy
7:00 AM 77.0 °F - 75.2 °F 94% 29.86 in 5.0 mi Variable 1.2 mph - N/A   Partly Cloudy
7:30 AM 78.8 °F - 75.2 °F 89% 29.86 in 5.0 mi Variable 2.3 mph - N/A   Partly Cloudy
8:00 AM 81 °F - 74 °F 75% 29.88 in 5 mi NW 2.3 mph - -   Scattered Clouds
8:00 AM 80.6 °F 86.2 °F 75.2 °F 84% 29.86 in 5.0 mi Variable 2.3 mph - N/A   Partly Cloudy
8:30 AM 84.2 °F 92.3 °F 75.2 °F 74% 29.86 in 5.0 mi Variable 2.3 mph - N/A   Scattered Clouds
9:00 AM 84.2 °F 94.1 °F 77.0 °F 79% 29.86 in 5.0 mi NW 4.6 mph - N/A   Scattered Clouds
9:21 AM 80.6 °F 86.2 °F 75.2 °F 84% 29.86 in 3.7 mi NW 10.4 mph - N/A Rain Light Rain
9:30 AM 80.6 °F 87.1 °F 77.0 °F 89% 29.86 in 3.7 mi NW 10.4 mph - N/A Rain Light Rain
10:00 AM 82.4 °F 90.9 °F 77.0 °F 84% 29.86 in 5.0 mi NW 5.8 mph - N/A   Scattered Clouds
10:30 AM 84.2 °F 92.3 °F 75.2 °F 74% 29.86 in 5.6 mi NW 8.1 mph - N/A   Scattered Clouds
11:00 AM 84 °F - 76 °F 72% 29.86 in 6 mi WNW 8.1 mph - - Rain Light Rain
11:00 AM 84.2 °F 94.1 °F 77.0 °F 79% 29.86 in 5.6 mi WNW 8.1 mph - N/A   Scattered Clouds
11:30 AM 86.0 °F 96.9 °F 77.0 °F 74% 29.83 in 5.6 mi WNW 9.2 mph - N/A   Scattered Clouds
12:00 PM 86.0 °F 96.9 °F 77.0 °F 74% 29.80 in 5.6 mi WNW 11.5 mph - N/A   Scattered Clouds
12:30 PM 86.0 °F 96.9 °F 77.0 °F 74% 29.80 in 5.6 mi NW 10.4 mph - N/A   Scattered Clouds
1:00 PM 86.0 °F 96.9 °F 77.0 °F 74% 29.77 in 5.6 mi WNW 10.4 mph - N/A   Scattered Clouds
1:30 PM 87.8 °F 97.6 °F 75.2 °F 66% 29.77 in 5.6 mi WNW 9.2 mph - N/A   Scattered Clouds
2:00 PM 87 °F - 76 °F 63% 29.77 in 6 mi WNW 10.4 mph - -   Partly Cloudy
2:00 PM 87.8 °F 99.7 °F 77.0 °F 70% 29.77 in 5.6 mi WNW 10.4 mph 23.0 mph N/A   Scattered Clouds
2:30 PM 84.2 °F 94.1 °F 77.0 °F 79% 29.77 in 5.0 mi WNW 12.7 mph 26.5 mph N/A   Mostly Cloudy
2:40 PM 82.4 °F 89.5 °F 75.2 °F 79% 29.77 in 4.3 mi West 11.5 mph - N/A Rain Light Rain
3:00 PM 78.8 °F - 75.2 °F 89% 29.74 in 4.3 mi WNW 11.5 mph - N/A Rain Light Rain
3:30 PM 80.6 °F 86.2 °F 75.2 °F 84% 29.74 in 5.6 mi West 8.1 mph - N/A   Scattered Clouds
4:00 PM 82.4 °F 89.5 °F 75.2 °F 79% 29.77 in 5.6 mi West 6.9 mph - N/A   Scattered Clouds
4:30 PM 82.4 °F 89.5 °F 75.2 °F 79% 29.77 in 6.2 mi WNW 5.8 mph - N/A   Scattered Clouds
5:00 PM 82 °F - 76 °F 77% 29.78 in 6 mi NW 6.9 mph - -   Partly Cloudy
5:00 PM 82.4 °F 90.9 °F 77.0 °F 84% 29.77 in 5.6 mi WNW 5.8 mph - N/A   Partly Cloudy
5:30 PM 82.4 °F 89.5 °F 75.2 °F 79% 29.77 in 5.6 mi NW 6.9 mph - N/A   Partly Cloudy
6:00 PM 80.6 °F 87.1 °F 77.0 °F 89% 29.77 in 5.6 mi NNE 4.6 mph - N/A   Scattered Clouds
6:30 PM 78.8 °F - 75.2 °F 89% 29.80 in 5.0 mi NE 3.5 mph - N/A   Scattered Clouds
7:00 PM 77.0 °F - 75.2 °F 94% 29.80 in 5.0 mi NE 4.6 mph - N/A   Scattered Clouds
7:30 PM 77.0 °F - 75.2 °F 94% 29.80 in 5.0 mi NE 3.5 mph - N/A   Partly Cloudy
8:00 PM 78 °F - 75 °F 89% 29.82 in 5 mi ENE 3.5 mph - -   Partly Cloudy
8:00 PM 77.0 °F - 75.2 °F 94% 29.80 in 5.0 mi ENE 3.5 mph - N/A   Partly Cloudy
8:30 PM 78.8 °F - 75.2 °F 89% 29.83 in 5.0 mi East 3.5 mph - N/A   Partly Cloudy
9:00 PM 77.0 °F - 75.2 °F 94% 29.83 in 5.0 mi Variable 2.3 mph - N/A   Partly Cloudy
9:30 PM 77.0 °F - 75.2 °F 94% 29.83 in 5.0 mi NE 3.5 mph - N/A   Partly Cloudy
10:00 PM 77.0 °F - 75.2 °F 94% 29.83 in 5.0 mi ENE 3.5 mph - N/A   Partly Cloudy
10:30 PM 77.0 °F - 75.2 °F 94% 29.83 in 5.0 mi ENE 2.3 mph - N/A   Partly Cloudy
11:00 PM 76 °F - 74 °F 94% 29.84 in 5 mi NE 3.5 mph - -   Scattered Clouds
11:00 PM 77.0 °F - 75.2 °F 94% 29.83 in 5.0 mi NE 3.5 mph - N/A   Partly Cloudy
11:30 PM 75.2 °F - 75.2 °F 100% 29.83 in 5.0 mi East 3.5 mph - N/A   Partly Cloudy